Weather History for KTCL - January, 2014

Change the Weather History Date:

Sunday, January 5, 2014

  Actual Average Record
Temperature  
Mean Temperature 46 °F 45 °F  
Max Temperature 61 °F 55 °F 76 °F (1950)
Min Temperature 30 °F 34 °F 12 °F (1969)
Degree Days  
Heating Degree Days 19 20  
Month to date heating degree days 126 100  
Since 1 July heating degree days 1130 1101  
Moisture  
Dew Point 39 °F    
Average Humidity 80    
Maximum Humidity 93    
Minimum Humidity 67    
Precipitation  
Precipitation 0.11 in 0.16 in 1.51 in (1962)
Month to date precipitation 0.46 0.75  
Year to date precipitation 0.46 0.75  
Sea Level Pressure  
Sea Level Pressure 29.98 in    
Wind  
Wind Speed 9 mph (South)    
Max Wind Speed 28 mph    
Max Gust Speed 43 mph    
Visibility 9 miles    
Events Rain    
T = Trace of Precipitation, MM = Missing Value Source: NWS Daily Summary

Daily Weather History Graph

Daily Weather History Graph

Search for Another Location

Airport or City:

Trip Planner

Search our weather history database for the weather conditions in past years. The results will help you decide how hot, cold, wet, or windy it might be!

Date:

Astronomy

Jan. 05, 2014 Rise Set
Actual Time 6:54 AM CST 4:57 PM CST
Civil Twilight 6:27 AM CST 5:24 PM CST
Nautical Twilight 5:56 AM CST 5:55 PM CST
Astronomical Twilight 5:26 AM CST 6:25 PM CST
Moon 9:51 AM CST (1/5) 10:07 PM CST (1/5)
Length of Visible Light 10h 57m
Length of Day
10h 02m
Waxing Crescent, 25% of the Moon is Illuminated
Jan 5
Waxing Crescent
Jan 7
First Quarter
Jan 15
Full
Jan 23
Last Quarter
Jan 30
New

Hourly Weather History & Observations

Time (CST) Temp. Windchill Dew Point Humidity Pressure Visibility Wind Dir Wind Speed Gust Speed Precip Events Conditions
12:53 AM 37.9 °F 35.5 °F 34.0 °F 86% 30.11 in 10.0 mi East 3.5 mph - N/A   Clear
1:53 AM 39.9 °F 37.8 °F 34.0 °F 79% 30.12 in 10.0 mi Variable 3.5 mph - N/A   Overcast
2:53 AM 39.9 °F 37.8 °F 33.1 °F 77% 30.10 in 10.0 mi ESE 3.5 mph - N/A   Overcast
3:53 AM 41.0 °F 38.0 °F 34.0 °F 76% 30.09 in 10.0 mi East 4.6 mph - N/A   Overcast
4:53 AM 41.0 °F 39.0 °F 34.0 °F 76% 30.06 in 10.0 mi East 3.5 mph - N/A   Overcast
5:53 AM 42.1 °F 40.2 °F 34.0 °F 73% 30.05 in 10.0 mi ESE 3.5 mph - N/A   Overcast
6:07 AM 42.8 °F - 35.6 °F 76% 30.05 in 10.0 mi Calm Calm - N/A   Overcast
6:24 AM 42.8 °F 41.1 °F 35.6 °F 76% 30.05 in 10.0 mi East 3.5 mph - N/A   Overcast
6:53 AM 43.0 °F 41.3 °F 36.0 °F 76% 30.04 in 10.0 mi East 3.5 mph - N/A   Overcast
7:53 AM 45.0 °F 41.2 °F 37.0 °F 74% 30.04 in 10.0 mi SE 6.9 mph - N/A   Overcast
8:00 AM 44.6 °F 40.2 °F 37.4 °F 76% 30.03 in 10.0 mi SE 8.1 mph - N/A   Overcast
8:10 AM 44.6 °F 41.4 °F 37.4 °F 76% 30.02 in 10.0 mi ESE 5.8 mph - N/A   Overcast
8:22 AM 46.4 °F 42.9 °F 37.4 °F 71% 30.03 in 10.0 mi Variable 6.9 mph - N/A   Overcast
8:53 AM 46.0 °F - 39.0 °F 76% 30.04 in 10.0 mi Calm Calm - N/A   Overcast
9:53 AM 46.9 °F - 41.0 °F 80% 30.03 in 6.0 mi SE 8.1 mph - N/A   Haze
10:38 AM 48.2 °F - 42.8 °F 82% 30.00 in 9.0 mi Variable 3.5 mph - 0.00 in   Overcast
10:53 AM 48.0 °F - 43.0 °F 83% 30.00 in 9.0 mi South 5.8 mph - 0.00 in   Overcast
11:18 AM 48.2 °F - 42.8 °F 82% 29.98 in 9.0 mi South 5.8 mph - N/A   Overcast
11:53 AM 48.9 °F - 44.1 °F 83% 29.95 in 8.0 mi South 9.2 mph - N/A   Overcast
12:53 PM 48.9 °F - 46.0 °F 90% 29.89 in 8.0 mi South 10.4 mph - N/A   Overcast
1:44 PM 55.4 °F - 48.2 °F 77% 29.85 in 10.0 mi South 6.9 mph - N/A   Overcast
1:53 PM 57.0 °F - 48.9 °F 74% 29.84 in 10.0 mi South 12.7 mph 20.7 mph N/A   Overcast
2:53 PM 59.0 °F - 48.9 °F 69% 29.81 in 10.0 mi South 11.5 mph - N/A   Overcast
3:53 PM 61.0 °F - 50.0 °F 67% 29.79 in 10.0 mi South 12.7 mph 19.6 mph N/A   Overcast
4:53 PM 59.0 °F - 52.0 °F 78% 29.78 in 10.0 mi South 6.9 mph - 0.01 in   Overcast
5:53 PM 59.0 °F - 53.1 °F 81% 29.78 in 10.0 mi South 6.9 mph - 0.01 in Rain Light Rain
6:30 PM 53.6 °F - 50.0 °F 88% 29.83 in 3.0 mi West 27.6 mph 42.6 mph 0.04 in Rain Heavy Rain
6:43 PM 51.8 °F - 48.2 °F 88% 29.85 in 7.0 mi WNW 16.1 mph 29.9 mph 0.05 in Rain Light Rain
6:53 PM 51.1 °F - 46.9 °F 86% 29.86 in 7.0 mi WNW 17.3 mph 28.8 mph 0.05 in Rain Light Rain
7:17 PM 46.4 °F 39.8 °F 42.8 °F 87% 29.90 in 5.0 mi NW 16.1 mph 29.9 mph 0.01 in Rain Light Rain
7:34 PM 42.8 °F 34.0 °F 39.2 °F 87% 29.93 in 6.0 mi NW 20.7 mph 31.1 mph 0.01 in Rain Light Rain
7:53 PM 42.1 °F 34.9 °F 37.9 °F 85% 29.94 in 6.0 mi WNW 13.8 mph 25.3 mph 0.02 in Rain Light Rain
8:53 PM 37.0 °F 28.5 °F 33.1 °F 86% 30.01 in 9.0 mi NW 13.8 mph 28.8 mph 0.01 in Rain Light Rain
9:41 PM 33.8 °F 22.8 °F 30.2 °F 87% 30.05 in 9.0 mi NW 18.4 mph 27.6 mph 0.01 in   Overcast
9:53 PM 33.1 °F 21.5 °F 28.0 °F 82% 30.06 in 10.0 mi NW 19.6 mph 32.2 mph 0.01 in   Overcast
10:53 PM 32.0 °F 23.0 °F 26.1 °F 79% 30.10 in 10.0 mi NW 11.5 mph 29.9 mph N/A   Overcast
11:44 PM 30.2 °F 17.8 °F 24.8 °F 80% 30.13 in 10.0 mi NW 19.6 mph 26.5 mph N/A   Overcast
11:53 PM 30.0 °F 18.3 °F 23.0 °F 75% 30.14 in 10.0 mi NW 17.3 mph 28.8 mph N/A   Overcast